Location: Unspecified
(41.1850°N, 73.2650°W)
Time: 16:32:56
(UTC+00:00)

Cosmos 1538 Rocket - Pass Details

Date: 14 December 2025
Orbit: 747 x 788 km, 74.0° (Epoch: 16 January)

Event Time Altitude Azimuth Distance (km) Brightness Sun altitude
Rises 22:45:54 0° 339° (NNW) 3,258 7.3 -14.7°
Reaches altitude 10° 22:48:17 10° 339° (NNW) 2,333 6.5 -15.1°
Maximum altitude 22:53:36 82° 253° (WSW) 795 4.1 -16.1°
Drops below altitude 10° 22:58:55 10° 166° (SSE) 2,337 6.5 -17.0°
Sets 23:01:18 0° 165° (SSE) 3,264 7.3 -17.5°
